EW8328 Weather Reports


time (UTC)temp
C
wind
direction
speed
KPH
gust
KPH
rain 1hr
cm
rain 24hr
cm
rain mn
cm
humidity
%
barometer
mb
20260904015817 13 239 0.0 1.6 0.25 1.45 0.76 96 1005.5
20260904014817 13 239 0.0 0.0 0.30 1.45 0.76 96 1005.5
20260904014318 13 239 0.0 3.2 0.30 1.45 0.74 96 1005.6
20260904013817 13 239 3.2 4.8 0.30 1.42 0.71 96 1005.9
20260904013317 13 239 0.0 1.6 0.33 1.40 0.71 96 1005.8
20260904012317 13 239 1.6 3.2 0.28 1.35 0.64 96 1005.8
20260904011817 13 239 1.6 3.2 0.25 1.30 0.61 96 1005.9
20260904010317 13 239 1.6 1.6 0.23 1.22 0.51 95 1006.2
20260904005817 13 239 0.0 0.0 0.20 1.19 0.51 96 1006.0
20260904005317 13 239 0.0 3.2 0.20 1.17 0.48 95 1005.9
20260904004817 13 239 0.0 1.6 0.20 1.17 0.46 96 1006.0
20260904003817 13 239 0.0 3.2 0.23 1.12 0.43 95 1006.4
20260904003317 13 239 0.0 3.2 0.20 1.09 0.38 95 1006.7
20260904002817 13 239 1.6 3.2 0.23 1.09 0.38 95 1006.9
20260904002316 13 239 0.0 3.2 0.25 1.07 0.36 95 1006.7
20260904001818 13 239 0.0 0.0 0.25 1.07 0.33 95 1006.6
20260904001318 13 239 0.0 0.0 0.25 1.04 0.33 95 1006.8
20260904000817 13 239 1.6 32.2 0.28 1.04 0.33 95 1006.9
20260904000318 13 239 0.0 3.2 0.28 1.02 0.30 95 1006.8
20260903235817 13 239 0.0 3.2 0.30 1.02 0.30 95 1006.9
20260903234817 13 239 0.0 3.2 0.33 0.99 0.25 95 1007.4
20260903233318 13 239 0.0 3.2 0.33 0.89 0.18 95 1007.8
20260903232818 13 239 1.6 3.2 0.30 0.86 0.15 95 1007.9
20260903232317 13 239 1.6 3.2 0.28 0.81 0.10 95 1008.1
20260903231818 13 239 1.6 4.8 0.28 0.79 0.08 94 1008.2
20260903231317 13 239 1.6 4.8 0.30 0.79 0.05 94 1008.2
20260903230859 13 239 0.0 3.2 0.30 0.76 0.05 94 1008.2
20260903230317 13 239 0.0 3.2 0.33 0.74 0.03 94 1008.2
20260903225317 13 239 0.0 1.6 0.33 0.71 0.71 94 1008.4
20260903224817 13 239 0.0 3.2 0.33 0.69 0.69 94 1008.5
20260903223317 13 239 0.0 3.2 0.33 0.61 0.61 94 1008.7
20260903222817 13 239 0.0 1.6 0.33 0.58 0.58 94 1008.7
20260903221817 13 239 0.0 3.2 0.28 0.51 0.51 94 1008.8
20260903220317 13 261 1.6 4.8 0.18 0.46 0.43 93 1009.0
20260903215817 13 261 3.2 8.0 0.15 0.43 0.38 93 1009.0
20260903215317 13 349 1.6 4.8 0.15 0.43 0.38 92 1009.0
20260903214317 14 298 1.6 4.8 0.10 0.38 0.33 92 1009.1
20260903213817 14 325 3.2 9.7 0.05 0.33 0.30 92 1009.1
20260903213318 15 343 4.8 9.7 0.05 0.33 0.28 91 1009.3
20260903212817 15 243 3.2 8.0 0.05 0.30 0.25 91 1009.3
20260903212317 15 342 3.2 8.0 0.05 0.30 0.25 91 1009.3
20260903211817 15 244 3.2 14.5 0.03 0.28 0.23 92 1009.4
20260903210817 15 247 4.8 9.7 0.03 0.28 0.23 92 1009.5
20260903210317 15 232 4.8 11.3 0.03 0.28 0.23 92 1009.4
20260903205317 15 249 4.8 11.3 0.05 0.28 0.23 92 1009.5
20260903204817 15 226 4.8 11.3 0.05 0.28 0.23 92 1009.5
20260903204317 15 215 4.8 12.9 0.05 0.28 0.23 91 1009.5
20260903203317 16 210 4.8 14.5 0.03 0.25 0.23 91 1009.6
20260903202817 16 228 9.7 14.5 0.03 0.25 0.23 91 1009.7
20260903202318 16 219 8.0 14.5 0.03 0.25 0.23 91 1009.7
20260903201818 16 221 8.0 16.1 0.03 0.25 0.23 90 1009.9
20260903201317 16 218 9.7 19.3 0.05 0.25 0.23 91 1009.9
20260903200817 16 218 8.0 14.5 0.05 0.25 0.23 91 1010.1
20260903200317 16 221 6.4 14.5 0.05 0.25 0.23 90 1010.0
20260903195817 16 224 6.4 14.5 0.05 0.25 0.23 90 1010.0
20260903195316 16 240 4.8 11.3 0.05 0.23 0.20 90 1010.0
20260903194818 16 229 3.2 8.0 0.05 0.23 0.20 91 1009.9
20260903193317 16 210 4.8 9.7 0.08 0.23 0.20 90 1009.9
20260903192817 16 230 4.8 11.3 0.08 0.23 0.20 91 1009.9
20260903192317 16 217 4.8 11.3 0.08 0.23 0.20 91 1010.0
20260903191319 16 198 4.8 14.5 0.08 0.23 0.18 91 1010.1
20260903190816 16 187 8.0 12.9 0.08 0.23 0.18 91 1010.1
20260903190317 16 209 3.2 4.8 0.08 0.23 0.18 92 1010.1
20260903185817 16 203 3.2 8.0 0.05 0.20 0.15 91 1010.2
20260903185317 16 214 3.2 8.0 0.05 0.20 0.15 91 1010.4
20260903184817 16 215 4.8 12.9 0.05 0.20 0.15 91 1010.5
20260903183317 16 231 3.2 4.8 0.05 0.15 0.13 91 1010.6
20260903182317 16 268 3.2 8.0 0.05 0.15 0.13 90 1010.6
20260903181817 17 227 3.2 9.7 0.05 0.15 0.13 90 1010.7
20260903181317 17 246 4.8 12.9 0.03 0.15 0.10 90 1010.7
20260903180818 17 227 4.8 9.7 0.03 0.15 0.10 89 1010.9
20260903180317 17 235 6.4 11.3 0.03 0.15 0.10 89 1010.8
20260903175817 17 226 4.8 11.3 0.03 0.15 0.10 89 1010.8
20260903175316 17 238 8.0 16.1 0.03 0.15 0.10 88 1010.8
20260903174818 17 245 9.7 19.3 0.03 0.15 0.10 88 1011.0
20260903174317 17 226 11.3 22.5 0.03 0.15 0.10 88 1011.2
20260903173817 17 232 9.7 19.3 0.00 0.13 0.08 88 1011.3
20260903173317 17 252 4.8 14.5 0.00 0.13 0.08 88 1011.3
20260903172817 17 240 4.8 11.3 0.00 0.13 0.08 88 1011.3
20260903172317 17 234 8.0 14.5 0.00 0.13 0.08 88 1011.3
20260903171817 17 245 6.4 14.5 0.00 0.13 0.08 88 1011.2
20260903171316 17 254 3.2 11.3 0.00 0.13 0.08 87 1011.1
20260903170816 17 240 6.4 11.3 0.00 0.13 0.08 87 1011.0
20260903170317 17 256 6.4 12.9 0.00 0.13 0.08 87 1011.1
20260903165817 17 250 4.8 11.3 0.00 0.13 0.08 86 1011.0
20260903165318 17 242 4.8 9.7 0.00 0.13 0.08 87 1010.9
20260903164817 17 261 4.8 11.3 0.00 0.13 0.08 86 1010.9
20260903164317 17 237 8.0 12.9 0.00 0.13 0.08 86 1011.1
20260903163817 17 229 8.0 16.1 0.00 0.13 0.08 86 1011.2
20260903163316 17 232 8.0 14.5 0.00 0.13 0.08 85 1011.4
20260903162818 17 245 9.7 19.3 0.00 0.13 0.08 85 1011.6
20260903162317 17 236 9.7 19.3 0.00 0.13 0.08 85 1011.6
20260903161817 17 233 6.4 16.1 0.00 0.13 0.08 85 1011.5
20260903161317 17 244 9.7 19.3 0.00 0.13 0.08 85 1011.5
20260903160318 18 235 8.0 19.3 0.00 0.13 0.08 82 1011.8
20260903155817 18 243 8.0 16.1 0.00 0.13 0.08 81 1011.9
20260903155316 18 270 11.3 24.1 0.00 0.13 0.08 80 1011.9
20260903154817 18 258 8.0 19.3 0.00 0.13 0.08 79 1011.9
20260903154317 18 239 8.0 14.5 0.00 0.13 0.08 79 1011.7
20260903153817 18 247 8.0 12.9 0.00 0.13 0.08 79 1011.7
20260903153317 18 253 8.0 14.5 0.00 0.13 0.08 78 1011.9
20260903152816 18 255 8.0 12.9 0.00 0.13 0.08 78 1012.0
20260903152317 18 249 9.7 19.3 0.00 0.13 0.08 77 1011.9
20260903151817 18 240 11.3 20.9 0.00 0.13 0.08 77 1011.8
20260903151318 18 253 9.7 20.9 0.00 0.13 0.08 77 1011.9
20260903150816 18 247 8.0 20.9 0.00 0.13 0.08 77 1012.2
20260903150317 18 252 8.0 19.3 0.00 0.13 0.08 76 1012.2
20260903145817 19 234 11.3 25.7 0.00 0.13 0.08 75 1012.2
20260903145316 19 232 9.7 16.1 0.00 0.13 0.08 75 1012.1
20260903144316 19 247 11.3 24.1 0.00 0.13 0.08 75 1012.1
20260903143818 19 215 9.7 20.9 0.00 0.13 0.08 75 1012.0
20260903143317 19 211 11.3 22.5 0.00 0.13 0.08 76 1011.9
20260903142817 19 210 9.7 22.5 0.00 0.13 0.08 75 1011.9
20260903142316 19 248 9.7 24.1 0.00 0.13 0.08 75 1012.0
20260903141317 19 229 8.0 16.1 0.00 0.13 0.08 75 1011.9
20260903140817 19 204 9.7 20.9 0.00 0.13 0.08 76 1011.9
20260903140318 19 208 11.3 20.9 0.00 0.15 0.08 75 1012.0
20260903135817 18 217 9.7 16.1 0.00 0.15 0.08 76 1012.1
20260903135316 18 215 11.3 27.4 0.00 0.15 0.08 76 1012.0
20260903134817 18 239 9.7 19.3 0.00 0.15 0.08 76 1012.0
20260903134317 18 235 12.9 25.7 0.00 0.15 0.08 77 1012.1
20260903133816 18 215 12.9 20.9 0.00 0.15 0.08 77 1012.1
20260903133316 18 216 8.0 19.3 0.00 0.18 0.08 78 1012.2
20260903132817 18 237 11.3 20.9 0.00 0.18 0.08 77 1012.4
20260903132317 18 251 8.0 22.5 0.00 0.18 0.08 78 1012.2
20260903131817 18 247 9.7 16.1 0.00 0.18 0.08 78 1012.2
20260903130817 18 249 8.0 19.3 0.00 0.18 0.08 77 1012.1
20260903130317 18 249 11.3 19.3 0.00 0.18 0.08 77 1012.2
20260903125817 18 249 8.0 19.3 0.00 0.18 0.08 77 1012.3
20260903124817 18 226 6.4 19.3 0.00 0.18 0.08 77 1012.3
20260903124316 18 228 8.0 19.3 0.00 0.20 0.08 78 1012.4
20260903123816 18 237 8.0 20.9 0.00 0.20 0.08 78 1012.4
20260903123316 18 258 9.7 20.9 0.00 0.20 0.08 77 1012.6
20260903122817 18 224 12.9 25.7 0.00 0.20 0.08 77 1012.7
20260903121316 18 240 9.7 19.3 0.00 0.20 0.08 78 1012.7
20260903120816 18 238 9.7 19.3 0.00 0.20 0.08 77 1012.8
20260903120317 18 251 8.0 16.1 0.00 0.20 0.08 78 1012.8
20260903115816 18 235 8.0 19.3 0.00 0.20 0.08 78 1012.6
20260903115317 17 226 9.7 19.3 0.00 0.20 0.08 78 1012.7
20260903114816 17 237 8.0 19.3 0.00 0.20 0.08 79 1012.7
20260903114316 17 238 9.7 20.9 0.00 0.20 0.08 78 1012.6
20260903113317 17 237 9.7 19.3 0.00 0.23 0.08 78 1012.7
20260903112317 17 259 8.0 20.9 0.00 0.25 0.08 77 1012.6
20260903111816 17 248 6.4 20.9 0.00 0.25 0.08 78 1012.6
20260903110817 17 249 4.8 12.9 0.00 0.25 0.08 79 1012.5
20260903110316 17 251 8.0 12.9 0.00 0.25 0.08 79 1012.4
20260903105816 17 256 9.7 16.1 0.00 0.25 0.08 77 1012.4
20260903105316 17 248 8.0 14.5 0.00 0.25 0.08 77 1012.3
20260903104817 17 243 9.7 22.5 0.00 0.28 0.08 78 1012.4
20260903103817 17 257 8.0 16.1 0.00 0.28 0.08 80 1012.5
20260903103316 17 239 8.0 22.5 0.00 0.28 0.08 80 1012.5
20260903102817 17 253 9.7 16.1 0.00 0.28 0.08 80 1012.5
20260903102316 17 250 9.7 19.3 0.00 0.28 0.08 81 1012.3
20260903101816 17 226 9.7 19.3 0.00 0.28 0.08 83 1012.2
20260903101317 16 258 6.4 11.3 0.00 0.28 0.08 85 1012.2
20260903100816 16 246 8.0 19.3 0.00 0.28 0.08 85 1012.3
20260903100316 16 251 8.0 19.3 0.00 0.28 0.08 86 1012.3
20260903095816 16 252 9.7 16.1 0.00 0.28 0.08 86 1012.1
20260903095316 16 235 6.4 20.9 0.00 0.28 0.08 87 1012.2
20260903094817 16 250 11.3 20.9 0.00 0.28 0.08 87 1012.2
20260903094316 16 243 8.0 19.3 0.00 0.28 0.08 87 1012.2
20260903093816 16 246 8.0 12.9 0.00 0.28 0.08 88 1012.1
20260903093317 16 244 8.0 12.9 0.00 0.28 0.08 88 1012.2
20260903092816 16 237 8.0 16.1 0.00 0.28 0.08 89 1012.0
20260903092316 16 240 8.0 19.3 0.00 0.28 0.08 88 1012.0
20260903091316 16 249 8.0 20.9 0.00 0.28 0.08 89 1012.1
20260903090316 16 241 11.3 32.2 0.00 0.28 0.08 89 1011.8
20260903085316 15 238 6.4 24.1 0.00 0.28 0.08 91 1011.5
20260903084817 15 250 9.7 19.3 0.03 0.28 0.08 91 1011.5
20260903084316 15 254 8.0 19.3 0.03 0.28 0.08 91 1011.5
20260903083816 15 248 12.9 24.1 0.03 0.28 0.08 91 1011.4
20260903083316 15 249 11.3 19.3 0.03 0.28 0.08 91 1011.4
20260903082816 15 238 11.3 24.1 0.03 0.28 0.08 91 1011.2
20260903082317 15 219 9.7 19.3 0.03 0.28 0.08 91 1011.2
20260903081816 15 237 11.3 19.3 0.03 0.28 0.08 91 1011.2
20260903081316 15 240 11.3 22.5 0.03 0.28 0.08 92 1011.3
20260903080817 15 236 8.0 22.5 0.03 0.28 0.08 92 1011.2
20260903080316 15 239 8.0 20.9 0.05 0.28 0.08 92 1011.2
20260903075817 15 252 6.4 20.9 0.05 0.28 0.08 92 1011.2
20260903075316 15 238 9.7 20.9 0.05 0.28 0.08 92 1011.3
20260903074816 15 236 8.0 19.3 0.05 0.25 0.05 92 1011.3
20260903074316 15 243 11.3 20.9 0.05 0.25 0.05 91 1011.1
20260903073316 15 242 9.7 19.3 0.05 0.25 0.05 91 1011.1
20260903072317 15 242 11.3 22.5 0.05 0.25 0.05 92 1011.2
20260903071816 15 250 9.7 16.1 0.05 0.25 0.05 92 1010.9
20260903071316 15 233 8.0 19.3 0.05 0.25 0.05 92 1010.8
20260903070816 15 241 8.0 16.1 0.05 0.25 0.05 92 1010.6
20260903070316 15 259 8.0 19.3 0.03 0.23 0.05 91 1010.5
20260903065816 15 235 9.7 19.3 0.03 0.23 0.05 91 1010.6
20260903065316 15 237 11.3 24.1 0.03 0.23 0.05 91 1010.5
20260903064817 15 253 11.3 22.5 0.00 0.23 0.03 90 1010.6
20260903064316 15 246 16.1 22.5 0.00 0.23 0.03 91 1010.5
20260903063816 15 249 9.7 24.1 0.00 0.23 0.03 91 1010.5
20260903063316 15 246 11.3 24.1 0.00 0.23 0.03 91 1010.2
20260903062817 15 236 9.7 19.3 0.00 0.23 0.03 92 1010.2
20260903062316 15 236 8.0 19.3 0.00 0.23 0.03 92 1010.3
20260903061816 15 241 11.3 19.3 0.00 0.23 0.03 92 1010.2
20260903060817 15 246 11.3 27.4 0.00 0.23 0.03 92 1010.2
20260903060316 15 253 9.7 24.1 0.00 0.23 0.03 91 1010.1
20260903055817 16 252 11.3 19.3 0.00 0.23 0.03 91 1010.1
20260903054816 16 244 11.3 20.9 0.00 0.23 0.03 91 1010.0
20260903054315 16 234 9.7 24.1 0.00 0.23 0.03 91 1010.0
20260903053817 16 240 9.7 19.3 0.00 0.23 0.03 90 1009.9
20260903053315 16 247 9.7 22.5 0.00 0.23 0.03 90 1010.0
20260903052816 16 248 11.3 19.3 0.00 0.23 0.03 90 1010.1
20260903051816 16 238 9.7 19.3 0.00 0.23 0.03 90 1009.8
20260903051316 16 249 12.9 20.9 0.00 0.23 0.03 90 1009.9
20260903050816 16 237 8.0 16.1 0.00 0.23 0.03 90 1009.9
20260903050317 16 242 9.7 22.5 0.00 0.23 0.03 90 1009.9
20260903045816 16 238 8.0 16.1 0.00 0.23 0.03 90 1010.0
20260903045315 16 234 8.0 19.3 0.00 0.23 0.03 90 1009.9
20260903044817 16 251 9.7 16.1 0.00 0.23 0.03 90 1010.0
20260903044316 16 243 9.7 16.1 0.00 0.23 0.03 90 1010.0
20260903043816 16 254 8.0 16.1 0.00 0.23 0.03 91 1009.9
20260903043316 16 248 9.7 20.9 0.00 0.23 0.03 90 1009.9
20260903042816 16 242 8.0 19.3 0.00 0.23 0.03 90 1009.9
20260903042317 16 265 9.7 22.5 0.00 0.23 0.03 90 1009.8
20260903041316 16 262 9.7 19.3 0.00 0.23 0.03 90 1009.7
20260903040816 16 258 11.3 19.3 0.00 0.23 0.03 90 1009.9
20260903040317 16 233 8.0 14.5 0.00 0.23 0.03 91 1009.9
20260903034817 16 238 8.0 12.9 0.00 0.23 0.03 92 1009.8
20260903033317 16 242 8.0 22.5 0.00 0.23 0.03 92 1009.8
20260903032816 16 250 9.7 19.3 0.00 0.23 0.03 92 1009.7
20260903032316 16 249 8.0 16.1 0.00 0.23 0.03 92 1009.8
20260903031816 16 249 9.7 16.1 0.00 0.23 0.03 92 1009.6
20260903031316 16 248 9.7 20.9 0.00 0.23 0.03 92 1009.5
20260903030816 16 234 11.3 22.5 0.00 0.23 0.03 92 1009.7
20260903030316 17 245 11.3 20.9 0.00 0.23 0.03 92 1009.7
20260903025816 17 257 11.3 24.1 0.00 0.23 0.03 92 1009.6
20260903024316 17 239 9.7 19.3 0.00 0.23 0.03 92 1009.7
20260903023816 17 256 12.9 20.9 0.00 0.23 0.03 91 1009.6
20260903023316 17 249 11.3 22.5 0.00 0.23 0.03 91 1009.7
20260903022816 17 239 9.7 22.5 0.00 0.23 0.03 91 1009.7
20260903022316 17 235 8.0 16.1 0.00 0.23 0.03 92 1009.6
20260903020816 17 226 11.3 24.1 0.00 0.23 0.03 91 1009.8
20260903020316 17 241 11.3 19.3 0.00 0.23 0.03 91 1010.0